Location: Unsp...
(0.0000°N, 0.0000°E)
Time: 20:26:08
(UTC+01:00)

Daily predictions for brighter satellites

Satellite Brightness Start Highest point End
(mag) Time Altitude Azimuth Time Altitude Azimuth Time Altitude Azimuth
Ariane H10-3 3.8 19:11:46 10° WSW 19:15:21 47° SSE 19:31:26 10° E
ARIANE 5 DEB (SYLDA) 4.1 19:22:53 10° W 19:26:51 74° S 19:38:49 10° E
Cosmos 1980 Rocket 2.6 19:28:45 10° NNW 19:34:25 75° WSW 19:40:06 10° S
Nadezhda 1 Rocket 3.9 19:30:20 10° N 19:36:22 79° E 19:42:31 10° S
CENTAUR R/B 3.3 19:29:49 10° N 19:37:57 56° ENE 19:45:51 10° SE
Cosmos 1536 Rocket 4.1 19:38:07 10° NNE 19:42:14 37° E 19:46:22 10° SSE
Okean 1 3.5 19:39:45 10° NNE 19:43:40 48° E 19:47:35 10° SSE
ERBS 3.0 19:41:54 10° N 19:45:04 35° ENE 19:48:14 10° SE
Resurs 01 Rocket 3.4 19:44:08 10° E 19:45:51 12° ENE 19:47:34 10° NE
Cosmos 1812 2.8 19:42:09 10° N 19:45:58 80° W 19:49:50 10° S
Cosmos 2074 Rocket 4.2 19:41:16 10° SSE 19:47:12 47° E 19:53:08 10° NNE
Cosmos 1300 Rocket 4.4 19:44:18 10° SSW 19:48:35 56° W 19:52:53 10° N
Cosmos 2184 Rocket 4.3 19:43:45 10° SSE 19:49:52 48° E 19:55:54 10° NNE
ALOS 3.4 19:47:14 10° SE 19:50:51 22° ENE 19:54:26 10° NNE
Cosmos 2181 Rocket 4.4 19:50:04 10° NNE 19:56:00 42° E 20:01:59 10° SSE
OAO 2 Rocket 4.2 19:52:55 10° WNW 19:58:03 54° SW 20:03:15 10° SE
Palapa B4 Rocket 3.4 19:54:52 10° NW 19:59:34 46° NNE 20:02:09 18° E
GPS 2-17 Rocket1 3.6 20:00:21 10° SW 20:04:54 46° SSE 20:07:46 20° E
Cosmos 1461 4.1 20:02:34 10° NNE 20:05:46 21° ENE 20:06:29 20° E
Meteor 1-5 Rocket 4.3 20:02:30 10° S 20:08:24 80° E 20:14:22 10° N
Ariane H10 3.7 19:57:43 10° W 20:08:40 67° S 20:10:48 21° ESE
SL-16 R/B 2.1 20:04:32 10° N 20:10:08 68° ENE 20:15:46 10° SSE
FENGYUN 3A 4.0 20:06:39 10° SSE 20:11:41 41° ENE 20:16:42 10° N
FREGAT/IRIS 2.9 20:13:55 10° S 20:16:58 70° W 20:20:01 10° NNW
Cosmos 2082 3.8 20:12:40 10° S 20:18:12 52° ESE 20:23:04 13° NNE
Cosmos 2154 Rocket 4.4 20:12:53 10° SSE 20:18:47 41° E 20:24:39 10° NNE
deb Ariane 4.0 20:18:08 10° NW 20:19:46 20° N 20:19:46 20° N
Maqsat-H 1.4 20:15:22 10° W 20:20:06 81° N 20:21:34 33° ENE
SJ-6B 3.2 20:21:34 10° S 20:25:41 68° W 20:29:42 10° NNW
deb Ariane 3.9 20:23:23 10° WSW 20:26:19 44° SSE 20:29:07 25° ESE
Cosmos 2322 Rocket 2.3 20:21:03 10° NNW 20:26:38 76° WSW 20:32:17 10° S
Meteor 2-13 Rocket 4.3 20:21:02 10° S 20:27:04 72° E 20:33:04 10° N
ARIANE 5 R/B 2.7 20:11:18 10° W 20:27:42 82° S 20:29:17 36° ESE
Cosmos 1486 Rocket 4.0 20:23:39 10° S 20:28:52 57° ESE 20:32:06 23° NNE
Delta 198 4.0 20:23:46 10° WNW 20:29:00 89° SW 20:32:22 28° ESE
Meteor 1-29 3.0 20:27:02 14° N 20:29:55 75° WNW 20:33:20 10° SSW
HJ-1C 3.2 20:26:59 10° SSE 20:30:23 86° E 20:33:45 10° N
Atlas Centaur 2 4.1 20:24:05 10° W 20:30:36 30° NW 20:35:32 13° NNE
Centaur D-1A AC-31 3.4 20:25:49 10° W 20:31:56 23° SW 20:34:52 10° SSE
Cosmos 1340 3.3 20:29:34 10° NNW 20:33:14 56° W 20:36:57 10° S
Meteor 1-19 Rocket 4.2 20:27:36 10° N 20:33:23 80° E 20:39:15 10° S
ARIANE 5 R/B 3.8 20:20:26 10° W 20:37:21 71° S 20:39:25 37° ESE
Helios 1B rocket 3.7 20:35:43 10° N 20:39:36 41° WNW 20:43:31 10° SSW
Cosmos 2297 Rocket 2.0 20:36:58 10° SSW 20:42:38 81° ESE 20:45:44 28° NNE
Ariane H10 2.4 20:40:54 10° WNW 20:43:37 45° N 20:43:37 45° N
H-2A R/B 4.4 20:46:26 10° NNW 20:48:30 12° N 20:49:48 12° NNE
Cosmos 1544 Rocket 4.0 20:49:00 10° SSW 20:53:20 60° W 20:55:40 26° NNW
Cosmos 962 Rocket 4.4 20:48:32 10° S 20:54:48 67° E 20:56:36 46° NNE
Meteor 1-23 Rocket 4.1 20:51:43 10° N 20:57:24 73° E 21:03:03 10° S
Meteor 2-4 Rocket 3.6 20:54:44 10° N 21:00:05 80° W 21:05:27 10° S
Cosmos 2227 Rocket 3.3 20:57:09 10° SW 21:02:26 41° WNW 21:07:31 11° N
ARIANE 44L R/B 3.8 21:03:03 10° WSW 21:05:15 36° S 21:05:15 36° S
Cosmos 2360 Rocket 2.8 21:12:00 10° NNW 21:16:01 47° NNW 21:16:01 47° NNW
Resurs 01 Rocket 3.5 21:18:16 10° SSW 21:22:03 28° WSW 21:25:49 10° NW
Ariane 42P Rocket 4.5 21:19:29 10° W 21:52:57 80° W 21:52:57 80° W
